Preview of NWS' New Version of Forecast
This preview is not operational and should not be used for support decisions.

Regional Weather Roundup (RWR)

Issued by Austin/San Antonio, TX (EWX)

                            
000
ASUS44 KEWX 170510
RWREWX
SOUTH TEXAS REGIONAL WEATHER ROUNDUP
NATIONAL WEATHER SERVICE AUSTIN/SAN ANTONIO TX
1100 PM CST SUN DEC 16 2018

NOTE: "FAIR" INDICATED FEW OR NO CLOUDS BELOW 12,000 FEET WITH NO
SIGNIFICANT WEATHER AND/OR OBSTRUCTIONS TO VISIBILITY.

* - THESE STATIONS ARE NOT NWS OR FAA STATIONS...AND ARE NOT SUBJECT
    TO NWS AND FAA QUALITY CONTROL.
 
TXZ171-172-183>190-170600-
TEXAS HILL COUNTRY AND EDWARDS PLATEAU
  
CITY           SKY/WX    TMP DP  RH WIND       PRES   REMARKS
JUNCTION       PTCLDY    44  37  76 NW6       30.29S WCI  41          
*LLANO         CLOUDY    46  41  81 N5        30.32R WCI  44          
BURNET         CLOUDY    49  42  77 CALM      30.30R                  
*HORSESHOE BAY CLOUDY    48  42  80 CALM      30.27F                  
*KERRVILLE     CLOUDY    44  37  78 CALM      30.30R                  
*FREDERICKSBRG CLOUDY    43  38  81 CALM      30.28F                  
*ROCKSPRINGS   MOCLDY    54  21  28 S9        30.32F                  
*BOERNE STAGE  CLOUDY    46  34  61 CALM      30.30R                  
*CASTROVILLE   CLOUDY    50  39  66 CALM      30.30S                  
HONDO          CLOUDY    53  40  61 CALM      30.28F                  
*UVALDE        CLOUDY    51  37  57 CALM      30.30S                  
DEL RIO        CLOUDY    50  42  74 CALM      30.28S                  
LAUGHLIN AFB   CLOUDY    49  40  71 NE3       30.28S                  
CARRIZO SPRGS  CLOUDY    48  37  66 S3        30.28S                  
*FAITH RANCH   CLEAR     52  30  43 E5        30.28F                  
$$

TXZ173-191>194-202-209-217>225-228-170600-
CENTRAL AND SOUTH CENTRAL TEXAS
  
CITY           SKY/WX    TMP DP  RH WIND       PRES   REMARKS
GEORGETOWN     CLOUDY    51  41  68 CALM      30.29S                  
AUSTIN/BERGSTM CLOUDY    50  41  71 S3        30.28F                  
AUSTIN/MABRY   CLOUDY    51  41  68 CALM      30.29S                  
*AUSTIN/EXEC   CLOUDY    50  39  66 CALM      30.28F                  
*LAGO VISTA    CLOUDY    56  36  47 S3        30.28S                  
SAN MARCOS     CLOUDY    48  41  76 CALM      30.29F                  
NEW BRAUNFELS  CLOUDY    50  40  68 CALM      30.28S                  
RANDOLPH AFB   CLOUDY    51  40  65 CALM      30.29R                  
PT SAN ANTONIO CLOUDY    51  39  65 NW5       30.27R                  
SAN ANTONIO    CLOUDY    52  40  63 CALM      30.29R                  
STINSON FIELD  CLOUDY    52  35  52 CALM      30.27R                  
*LA GRANGE     CLOUDY    51  41  69 CALM      30.27S                  
*GIDDINGS      CLOUDY    47  42  81 CALM      30.29F                  
*GONZALES      CLOUDY    51  40  65 CALM      30.28F                  
$$

TXZ163>164-176>182-195>201-210>213-226-227-235-170600-
SOUTHEAST TEXAS
  
CITY           SKY/WX    TMP DP  RH WIND       PRES   REMARKS
COLLEGE STN    CLOUDY    51  45  79 CALM      30.28R                  
*BRYAN         CLOUDY    50  44  78 S3        30.29S                  
*CALDWELL      CLOUDY    51  40  68 CALM      30.29S                  
*CROCKETT        N/A     48  46  93 CALM      30.29S                  
*BRENHAM       CLOUDY    49  45  83 CALM      30.30S                  
HUNTSVILLE     CLOUDY    50  47  89 S6        30.27S WCI  48          
CONROE         CLOUDY    47  47 100 CALM      30.29S                  
HOUSTON BUSH   CLOUDY    51  50  96 CALM      30.29S                  
HOUSTON HOBBY  MOCLDY    53  49  86 CALM      30.29S                  
*HOUSTON SW AP FAIR      48  41  76 CALM      30.30S                  
PEARLAND       FAIR      50  49  96 CALM      30.31S                  
HOUSTON HOOKS  FAIR      49  48  97 CALM      30.30R                  
ELLINGTON FLD  NOT AVBL                                               
SUGAR LAND     FAIR      54  50  86 CALM      30.29S                  
*HOUSTON EXEC  FAIR      50  46  87 S5        30.30F WCI  48          
*CLEVELAND MUN FAIR      48  48 100 CALM      30.30R                  
*WHARTON       CLOUDY    51  47  87 CALM      30.32R FOG              
*COLUMBUS      FAIR      46  39  76 CALM      30.31S                  
*EAGLE LAKE    CLOUDY    49  46  88 S3        30.30                   
$$

TXZ214>216-236>238-170600-
THE UPPER TEXAS COAST
  
CITY           SKY/WX    TMP DP  RH WIND       PRES   REMARKS
*ORANGE        FAIR      50  50 100 CALM      30.29F                  
PORT ARTHUR    FAIR      50  47  89 W3        30.28F                  
GALVESTON      FAIR      56  54  93 S5        30.30S                  
ANGLETON       FAIR      49  48  97 CALM      30.29F                  
*BAY CITY      CLOUDY    49  49  99 CALM      30.30S FOG              
PALACIOS       CLOUDY    51  50  96 CALM      30.31S                  
$$

TXZ229>234-239>247-170600-
TEXAS COASTAL BEND AND RIO GRANDE PLAINS
  
CITY           SKY/WX    TMP DP  RH WIND       PRES   REMARKS
VICTORIA       CLOUDY    51  42  71 S5        30.30S                  
*BEEVILLE      CLOUDY    55  42  60 CALM      30.28F                  
ROCKPORT       CLOUDY    50  47  89 SE3       30.29F                  
*PORT ARANSAS  CLOUDY    58  53  83 E6        30.31F                  
*PORT LAVACA   CLOUDY    53  49  87 S3        30.31R                  
*INGLESIDE     CLOUDY    52  48  87 SE3       30.29F                  
CORPUS CHRISTI CLOUDY    53  46  77 SE6       30.29F                  
CORPUS NAS     MOCLDY    54  50  86 SE6       30.29F                  
*ROBSTOWN      NOT AVBL                                               
ALICE          CLOUDY    50  43  77 CALM      30.29F                  
KINGSVILLE NAS CLOUDY    51  46  83 SE5       30.29F                  
COTULLA        CLOUDY    49  38  65 SE6       30.29F WCI  46          
LAREDO         CLOUDY    55  34  45 E6        30.28F                  
$$

TXZ248>255-170600-
DEEP SOUTH TEXAS
  
CITY           SKY/WX    TMP DP  RH WIND       PRES   REMARKS
BROWNSVILLE    FAIR      59  54  83 N3        30.30F                  
PORT ISABEL    FAIR      55  51  86 N5        30.28F                  
HARLINGEN      PTCLDY    54  50  86 NW3       30.30S                  
*HEBBRONVILLE  CLOUDY    51  36  55 CALM      30.31R                  
MCALLEN        CLOUDY    57  48  72 S3        30.31S                  
*WESLACO       PTCLDY    54  47  78 CALM      30.30                   
FALFURRIAS     CLOUDY    51  44  75 CALM      30.29F                  
EDINBURG       FAIR      54  43  67 CALM      30.31S                  
*ZAPATA        FAIR      54  32  42 E5        30.30F                  
$$

TXZ213>215-236>238-242>244-246-247-251-254-255-170600-
CMAN STATIONS
  
STATION/POSITION TIME  TEMP    WIND        PRES    WAVE
                       AIR SEA DIR/SP/G            HT/PER
                 (UTC) (F)     (DEG/KT/KT) (MB)    (FT/S)
SABINE PASS      0442   52 59     CALM     1026.9
SEA RIM ST PARK  0500   54     250/  6/  6 1026.4
NORTH JETTY/GLS  0436   59 60  170/  7/  8 1025.0
EAGLE POINT      0442   56 56  260/  3/  5 1026.2
MORGANS POINT    0442   55 57   CALM  /  2 1025.8
PORT O'CONNOR    0442   56 60  200/  1/  1 1025.7
PORT ARANSAS     0500   62 64   90/  6/  7 1025.5
MALAQUITE BEACH  0442   61 63   50/  6/  7 1025.5
BAFFIN BAY       0442   58 59   30/  6/  6 1025.9
PORT ISABEL      0442   60 60   10/  4/  5 1025.5
$$